Location: Launay
(47.2429°N, 1.5727°E)
Time: 01:04:20
(UTC+00:00)

Cosmos 1867 - Pass Details

Date: 19 May 2025
Orbit: 775 x 798 km, 65.0° (Epoch: 18 June)

Event Time Altitude Azimuth Distance (km) Brightness Sun altitude
Rises 21:30:34 0° 321° (NW) 3,312 8.6 -15.8°
Reaches altitude 10° 21:33:01 10° 319° (NW) 2,377 7.4 -16.0°
Maximum altitude 21:38:27 68° 237° (WSW) 857 3.7 -16.5°
Enters shadow 21:41:23 27° 162° (SSE) 1,474 4.4 -16.8°
